Weather History for Rickenbacker, OH

Change the Weather History Date:

Saturday, April 12, 2014

  Actual Average Record
Temperature  
Mean Temperature 60 °F -  
Max Temperature 78 °F 64 °F 132 °F (1999)
Min Temperature 41 °F 43 °F 31 °F (2012)
Degree Days  
Heating Degree Days 6    
Growing Degree Days 10 (Base 50)    
Moisture  
Dew Point 41 °F    
Average Humidity 53    
Maximum Humidity 87    
Minimum Humidity 22    
Precipitation  
Precipitation 0.00 in - - ()
Sea Level Pressure  
Sea Level Pressure 30.06 in    
Wind  
Wind Speed 5 mph (South)    
Max Wind Speed 20 mph    
Max Gust Speed 25 mph    
Visibility 10 miles    
Events      
Averages and records for this station are not official NWS values.
T = Trace of Precipitation, MM = Missing Value Source: NWS Daily Summary

Daily Weather History Graph

Daily Weather History Graph

Search for Another Location

Airport:

Trip Planner

Search our weather history database for the weather conditions in past years. The results will help you decide how hot, cold, wet, or windy it might be!

Date:

Astronomy

Apr. 12, 2014 Rise Set
Actual Time 6:58 AM EDT 8:06 PM EDT
Civil Twilight 6:30 AM EDT 8:34 PM EDT
Nautical Twilight 5:57 AM EDT 9:08 PM EDT
Astronomical Twilight 5:23 AM EDT 9:42 PM EDT
Moon 5:44 PM EDT (4/12) 5:24 AM EDT (4/12)
Length of Visible Light 14h 03m
Length of Day
13h 08m
Waxing Gibbous, 93% of the Moon is Illuminated
Apr 12
Waxing Gibbous
Apr 15
Full
Apr 22
Last Quarter
Apr 29
New
May 6
First Quarter

Hourly Weather History & Observations

Time (EDT) Temp. Dew Point Humidity Pressure Visibility Wind Dir Wind Speed Gust Speed Precip Events Conditions
12:15 AM 51.8 °F 39.9 °F 64% 30.10 in 10.0 mi Calm Calm - N/A   Clear
12:35 AM 50.2 °F 40.6 °F 70% 30.11 in 10.0 mi Calm Calm - N/A   Clear
12:55 AM 48.0 °F 40.6 °F 76% 30.11 in 10.0 mi Calm Calm - N/A   Clear
1:15 AM 47.5 °F 41.0 °F 78% 30.11 in 10.0 mi Calm Calm - N/A   Clear
1:35 AM 48.0 °F 40.6 °F 76% 30.11 in 10.0 mi SSW 3.5 mph - N/A   Clear
1:55 AM 47.8 °F 40.6 °F 76% 30.11 in 10.0 mi South 3.5 mph - N/A   Clear
2:15 AM 47.5 °F 40.1 °F 76% 30.11 in 10.0 mi South 3.5 mph - N/A   Clear
2:35 AM 47.7 °F 39.9 °F 75% 30.10 in 10.0 mi South 3.5 mph - N/A   Clear
2:55 AM 47.1 °F 39.4 °F 74% 30.11 in 10.0 mi Calm Calm - N/A   Clear
3:15 AM 46.2 °F 39.2 °F 76% 30.11 in 10.0 mi Calm Calm - N/A   Clear
3:35 AM 46.2 °F 39.9 °F 79% 30.11 in 10.0 mi Calm Calm - N/A   Clear
3:55 AM 45.3 °F 39.2 °F 79% 30.11 in 10.0 mi Calm Calm - N/A   Clear
4:15 AM 44.6 °F 39.4 °F 82% 30.13 in 10.0 mi Calm Calm - N/A   Clear
4:35 AM 44.4 °F 39.4 °F 82% 30.13 in 10.0 mi Calm Calm - N/A   Clear
4:55 AM 43.5 °F 38.8 °F 84% 30.14 in 10.0 mi Calm Calm - N/A   Clear
5:15 AM 43.0 °F 38.8 °F 85% 30.14 in 10.0 mi Calm Calm - N/A   Clear
5:35 AM 42.6 °F 38.7 °F 86% 30.15 in 10.0 mi Calm Calm - N/A   Clear
5:55 AM 41.5 °F 37.4 °F 85% 30.15 in 10.0 mi Calm Calm - N/A   Clear
6:15 AM 41.4 °F 37.6 °F 86% 30.16 in 10.0 mi Calm Calm - N/A   Clear
6:35 AM 41.5 °F 37.8 °F 86% 30.16 in 10.0 mi Calm Calm - N/A   Clear
6:55 AM 41.9 °F 38.3 °F 87% 30.16 in 10.0 mi Calm Calm - N/A   Clear
7:15 AM 41.0 °F 37.2 °F 86% 30.17 in 7.0 mi Calm Calm - N/A   Clear
7:35 AM 41.2 °F 37.6 °F 87% 30.18 in 10.0 mi Calm Calm - N/A   Clear
7:55 AM 41.9 °F 37.9 °F 86% 30.18 in 10.0 mi Calm Calm - N/A   Clear
8:15 AM 43.9 °F 39.7 °F 85% 30.18 in 10.0 mi Calm Calm - N/A   Clear
8:35 AM 47.1 °F 41.5 °F 81% 30.18 in 10.0 mi Calm Calm - N/A   Clear
8:55 AM 50.0 °F 42.6 °F 76% 30.18 in 10.0 mi South 3.5 mph - N/A   Clear
9:15 AM 52.9 °F 43.2 °F 70% 30.18 in 10.0 mi South 3.5 mph - N/A   Clear
9:35 AM 56.1 °F 43.9 °F 64% 30.18 in 10.0 mi South 5.8 mph - N/A   Clear
9:55 AM 59.0 °F 44.6 °F 59% 30.17 in 10.0 mi South 8.1 mph - N/A   Clear
10:15 AM 61.3 °F 44.2 °F 53% 30.17 in 10.0 mi South 11.5 mph 16.1 mph N/A   Clear
10:35 AM 64.9 °F 41.0 °F 42% 30.16 in 10.0 mi South 15.0 mph - N/A   Clear
10:55 AM 66.6 °F 38.1 °F 35% 30.16 in 10.0 mi SSE 12.7 mph 18.4 mph N/A   Clear
11:15 AM 67.8 °F 36.1 °F 31% 30.16 in 10.0 mi South 11.5 mph - N/A   Clear
11:35 AM 69.3 °F 34.0 °F 27% 30.15 in 10.0 mi South 15.0 mph 19.6 mph N/A   Clear
11:55 AM 70.2 °F 32.4 °F 25% 30.15 in 10.0 mi South 15.0 mph - N/A   Clear
12:15 PM 71.2 °F 31.6 °F 23% 30.13 in 10.0 mi SSE 11.5 mph - N/A   Clear
12:35 PM 72.3 °F 32.0 °F 23% 30.12 in 10.0 mi SSE 13.8 mph 23.0 mph N/A   Clear
12:55 PM 73.2 °F 31.6 °F 22% 30.10 in 10.0 mi South 15.0 mph 21.9 mph N/A   Clear
1:15 PM 73.8 °F 32.9 °F 22% 30.09 in 10.0 mi South 15.0 mph 19.6 mph N/A   Clear
1:35 PM 74.7 °F 36.1 °F 25% 30.08 in 10.0 mi South 13.8 mph 19.6 mph N/A   Clear
1:55 PM 74.8 °F 37.8 °F 26% 30.07 in 10.0 mi South 18.4 mph 23.0 mph N/A   Clear
2:15 PM 75.9 °F 38.5 °F 26% 30.06 in 10.0 mi South 15.0 mph 23.0 mph N/A   Clear
2:35 PM 76.1 °F 38.5 °F 26% 30.05 in 10.0 mi South 19.6 mph 25.3 mph N/A   Clear
2:55 PM 76.8 °F 39.2 °F 26% 30.04 in 10.0 mi South 12.7 mph 25.3 mph N/A   Clear
3:15 PM 76.8 °F 39.7 °F 26% 30.03 in 10.0 mi South 16.1 mph 21.9 mph N/A   Scattered Clouds
3:35 PM 77.5 °F 40.6 °F 27% 30.02 in 10.0 mi South 16.1 mph 20.7 mph N/A   Scattered Clouds
3:55 PM 77.7 °F 40.3 °F 26% 30.01 in 10.0 mi South 15.0 mph 19.6 mph N/A   Mostly Cloudy
4:15 PM 77.2 °F 41.4 °F 28% 30.00 in 10.0 mi South 11.5 mph 20.7 mph N/A   Mostly Cloudy
4:35 PM 78.3 °F 41.7 °F 27% 29.99 in 10.0 mi South 19.6 mph - N/A   Mostly Cloudy
4:55 PM 77.7 °F 41.7 °F 28% 29.98 in 10.0 mi SSW 12.7 mph - N/A   Scattered Clouds
5:15 PM 76.6 °F 42.8 °F 30% 29.98 in 10.0 mi South 11.5 mph 20.7 mph N/A   Mostly Cloudy
5:35 PM 76.8 °F 43.3 °F 30% 29.98 in 10.0 mi South 11.5 mph - N/A   Scattered Clouds
5:55 PM 77.7 °F 43.2 °F 29% 29.97 in 10.0 mi South 12.7 mph 16.1 mph N/A   Mostly Cloudy
6:15 PM 77.5 °F 42.8 °F 29% 29.96 in 10.0 mi SSW 15.0 mph 19.6 mph N/A   Scattered Clouds
6:35 PM 77.9 °F 42.6 °F 28% 29.95 in 10.0 mi SW 15.0 mph - N/A   Clear
6:55 PM 76.8 °F 43.7 °F 31% 29.95 in 10.0 mi SSW 12.7 mph - N/A   Scattered Clouds
7:15 PM 75.9 °F 45.0 °F 33% 29.95 in 10.0 mi SSW 11.5 mph - N/A   Scattered Clouds
7:35 PM 74.7 °F 45.9 °F 36% 29.94 in 10.0 mi SSW 8.1 mph - N/A   Clear
7:55 PM 72.5 °F 46.9 °F 40% 29.94 in 10.0 mi South 6.9 mph - N/A   Clear
8:15 PM 70.2 °F 47.3 °F 44% 29.93 in 10.0 mi South 6.9 mph - N/A   Clear
8:35 PM 69.4 °F 47.3 °F 45% 29.93 in 10.0 mi South 4.6 mph - N/A   Clear
8:55 PM 68.0 °F 47.1 °F 47% 29.93 in 10.0 mi South 6.9 mph - N/A   Clear
9:15 PM 68.2 °F 46.8 °F 46% 29.93 in 10.0 mi SSW 8.1 mph - N/A   Clear
9:35 PM 66.2 °F 47.3 °F 51% 29.92 in 10.0 mi SSE 5.8 mph - N/A   Clear
9:55 PM 65.5 °F 47.3 °F 52% 29.92 in 10.0 mi South 5.8 mph - N/A   Clear
10:15 PM 65.3 °F 46.9 °F 51% 29.91 in 10.0 mi SSE 5.8 mph - N/A   Clear
10:35 PM 63.3 °F 47.3 °F 56% 29.91 in 10.0 mi SE 3.5 mph - N/A   Clear
10:55 PM 63.7 °F 46.8 °F 54% 29.91 in 10.0 mi Calm Calm - N/A   Clear
11:15 PM 64.0 °F 46.4 °F 53% 29.90 in 10.0 mi Calm Calm - N/A   Clear
11:35 PM 63.3 °F 46.6 °F 54% 29.90 in 10.0 mi SSE 3.5 mph - N/A   Clear
11:55 PM 62.1 °F 46.9 °F 58% 29.90 in 10.0 mi SSE 5.8 mph - N/A   Clear